カタログに戻る

COSMOS 1859

運用中ナビゲーションLEO
NORAD 18120·PAYLOAD·🇷🇺 Russia

打ち上げ Jun 16, 1987 から Plesetsk Cosmodrome

Loading…

次のパス (今後24時間)

TLE

最新Source: Space-Track

元期: Sep 13, 2026, 23:06 UTC

1 18120U 87051H   26256.96272279 -.00000028  00000-0 -69711-4 0  9998
2 18120  74.0003 260.3583 0057709 235.6372 137.7983 12.57957750802175

AllMySatでCOSMOS 1859をリアルタイム追跡

Download on the App Store